Hourly Weather Roundup
Issued by NWS Central Illinois

Home | Current Version | Previous Version | Text Only | Print | Product List | Glossary On
Versions: 1 2 3 4 5 6 7 8 9 10 11 12 13 14 15 16 17 18 19 20 21 22 23 24 25 26 27 28 29 30 31 32 33 34 35 36 37 38 39 40 41 42 43 44 45 46 47 48 49 50
000
NZUS43 KILX 221610
HWRILX

Area Weather Roundup
National Weather Service Lincoln IL
1100 AM CDT SUN APR 22 2018

NOTE:  "FAIR" indicates few or no clouds below 12,000 feet, with
       no sigificant weather and/or obstructions to visibility.


CITY           SKY/WX    TMP DP  RH WIND       PRES   REMARKS
Bloomington    FAIR      57  29  34 E20       30.26F
Champaign      CLOUDY    54  29  38 NE13      30.23F
Danville       CLOUDY    56  30  36 NE14      30.23F
Decatur        CLOUDY    53  31  42 E16       30.23R
Effingham      FAIR      61  35  37 NE9       30.19F
Flora          CLOUDY    60  35  39 E9        30.18F
Galesburg      FAIR      62  31  31 E14       30.26F
Jacksonville   SUNNY     61  37  41 NE14      30.18F
Lacon          FAIR      58  25  28 E16       30.27F
Lawrenceville  FAIR      62  32  32 E12       30.19F
Litchfield     CLOUDY    58  39  49 E8        30.16S
$$


CITY           SKY/WX    TMP DP  RH WIND       PRES   REMARKS
Lincoln        CLOUDY    61  35  37 NE14      30.22F
Macomb         CLOUDY    58  32  37 E14       30.25F
Mattoon        FAIR      56  33  42 E10       30.19F
Mt Carmel AP   FAIR      58  33  38 E12       30.18S
Olney-Noble AP PTSUNNY   59  29  31 E12       30.19R
Paris AP       PTSUNNY   53  33  47 NE10      30.25R
Peoria         FAIR      57  29  34 E17G29    30.26F
Pontiac        FAIR      62  19  18 E16G25    30.28F
Rantoul        CLOUDY    60  31  33 E17       30.24F
Robinson       FAIR      60  35  39 E12       30.20F
Springfield    PTSUNNY   60  34  37 NE13      30.20F
Taylorville    CLOUDY    55  32  41 E14       30.19S
$$

...REGIONAL REPORTS...


CITY           SKY/WX    TMP DP  RH WIND       PRES   REMARKS
Chicago O`Hare PTSUNNY   56  23  27 E14       30.35F
Kankakee       FAIR      59  19  20 E14       30.31F
La Salle       FAIR      61  19  20 E13       30.31F
Moline         FAIR      59  26  28 E17       30.27F
Mount Sterling PTSUNNY   59  37  43 NE10G16   30.19F
Mount Vernon     N/A     55  38  52 E9        30.15F
Pittsfield     SUNNY     62  40  45 E9        30.17F
Quincy         CLOUDY    61  37  41 NE10G17   30.18F
Rockford       PTSUNNY   56  27  32 E13       30.37F
$$


CITY           SKY/WX    TMP DP  RH WIND       PRES   REMARKS
Burlington     CLOUDY    58  30  34 E15       30.23F
Cedar Rapids   FAIR      59  26  28 E17G25    30.27F
Des Moines     CLOUDY    56  27  32 E10       30.24F
Kirksville     CLOUDY    58  36  43 E13       30.20S
Ottumwa        CLOUDY    56  29  35 E15G23    30.23F
St Louis       CLOUDY    58  46  64 E14       30.14S
$$


CITY           SKY/WX    TMP DP  RH WIND       PRES   REMARKS
Terre Haute    FAIR      57  33  40 E8        30.23S
Evansville     FAIR      64  39  39 E9        30.16F
Indianapolis   CLOUDY    58  31  35 NE12      30.26F
Lafayette      FAIR      57  30  35 E13       30.28F
Madison        PTSUNNY   53  21  28 E9        30.37F
Milwaukee      PTSUNNY   47  23  38 NE7       30.41S
$$





USA.gov is the U.S. government's official web portal to all federal, state and local government web resources and services.